TimeEDT,TemperatureF,Dew PointF,Humidity,Sea Level PressureIn,VisibilityMPH,Wind Direction,Wind SpeedMPH,Gust SpeedMPH,PrecipitationIn,Events,Conditions,WindDirDegrees,DateUTC
12:56 AM,36.0,32.0,86,30.30,10.0,NNE,5.8,-,N/A,,Mostly Cloudy,30,2013-03-10 05:56:00
1:56 AM,37.9,32.0,79,30.30,10.0,NNE,11.5,-,N/A,,Overcast,30,2013-03-10 06:56:00
3:56 AM,37.9,30.9,76,30.30,10.0,NNE,9.2,-,N/A,,Overcast,30,2013-03-10 07:56:00
4:56 AM,37.9,30.0,73,30.31,10.0,NNE,12.7,-,N/A,,Overcast,30,2013-03-10 08:56:00
5:56 AM,37.9,30.0,73,30.33,10.0,NNE,8.1,-,N/A,,Overcast,30,2013-03-10 09:56:00
6:56 AM,37.9,30.0,73,30.34,10.0,NE,11.5,-,N/A,,Overcast,40,2013-03-10 10:56:00
8:56 AM,39.0,30.0,70,30.35,10.0,NE,9.2,-,N/A,,Overcast,50,2013-03-10 12:56:00
9:56 AM,39.9,30.9,70,30.36,10.0,NE,10.4,18.4,N/A,,Overcast,50,2013-03-10 13:56:00
10:56 AM,41.0,30.9,67,30.36,10.0,NNE,10.4,-,N/A,,Overcast,20,2013-03-10 14:56:00
11:56 AM,41.0,30.9,67,30.38,10.0,NNE,10.4,-,N/A,,Overcast,20,2013-03-10 15:56:00
12:56 PM,42.1,30.9,65,30.37,10.0,North,10.4,-,N/A,,Overcast,360,2013-03-10 16:56:00
1:56 PM,42.1,30.0,62,30.35,10.0,NNE,9.2,-,N/A,,Overcast,30,2013-03-10 17:56:00
2:56 PM,43.0,30.9,62,30.34,10.0,North,8.1,-,N/A,,Scattered Clouds,360,2013-03-10 18:56:00
3:56 PM,43.0,30.9,62,30.33,10.0,North,10.4,-,N/A,,Partly Cloudy,350,2013-03-10 19:56:00
4:56 PM,41.0,30.9,67,30.34,10.0,North,8.1,-,N/A,,Mostly Cloudy,350,2013-03-10 20:56:00
5:56 PM,39.9,30.9,70,30.34,10.0,North,4.6,-,N/A,,Overcast,350,2013-03-10 21:56:00
6:56 PM,39.0,30.9,73,30.34,10.0,NE,3.5,-,N/A,,Overcast,40,2013-03-10 22:56:00
7:56 PM,37.9,30.9,76,30.35,10.0,Calm,Calm,-,N/A,,Overcast,0,2013-03-10 23:56:00
8:56 PM,37.0,30.9,79,30.35,10.0,Variable,4.6,-,N/A,,Overcast,0,2013-03-11 00:56:00
9:56 PM,37.0,30.9,79,30.35,10.0,SSE,3.5,-,N/A,,Mostly Cloudy,150,2013-03-11 01:56:00
10:32 PM,37.4,30.2,75,30.33,10.0,SSE,4.6,-,N/A,,Scattered Clouds,150,2013-03-11 02:32:00
10:40 PM,37.4,30.2,75,30.33,10.0,SE,5.8,-,N/A,,Mostly Cloudy,140,2013-03-11 02:40:00
10:56 PM,37.0,30.9,79,30.33,10.0,Variable,4.6,-,N/A,,Mostly Cloudy,0,2013-03-11 02:56:00
11:56 PM,37.0,30.9,79,30.33,10.0,SSE,4.6,-,N/A,,Mostly Cloudy,160,2013-03-11 03:56:00
12:56 AM,37.0,32.0,82,30.31,10.0,South,5.8,-,N/A,,Overcast,170,2013-03-11 04:56:00